When you browse on this site, cookies collect data to enhance your experience and personalize the content and advertising you see.
Visit our Privacy Policy to learn more. By continuing to use the site, you agree to this use of cookies and data.
  • In Hungary
  • List of Countries
  • For 7 days
  • Water Temperature
  • Satellite Maps
  • Weather Map
  • News
  • Weather Widgets
  • user-avatar
    Login

    Hourly Weather Dendermonde

    Today, 21 November, Wednesday

    Time Temperature Precipitation Wind Pressure Humidity
    00:00 0°C° 0 mm 4 mps 756 mmHg 78%
    01:00 0°C° 0 mm 4 mps 756 mmHg 80%
    02:00 +1°C° 0 mm 3 mps 757 mmHg 81%
    03:00 +1°C° 0 mm 3 mps 757 mmHg 82%
    04:00 0°C° 0 mm 3 mps 758 mmHg 84%
    05:00 0°C° 0 mm 3 mps 758 mmHg 85%
    06:00 -1°C° 0 mm 2 mps 759 mmHg 87%
    07:00 +1°C° 0 mm 2 mps 759 mmHg 84%
    08:00 +2°C° 0 mm 2 mps 760 mmHg 81%
    09:00 +2°C° 0 mm 2 mps 760 mmHg 78%
    10:00 +3°C° 0 mm 2 mps 761 mmHg 75%
    11:00 +4°C° 0 mm 2 mps 761 mmHg 73%
    12:00 +5°C° 0 mm 2 mps 761 mmHg 71%
    13:00 +5°C° 0 mm 2 mps 761 mmHg 72%
    14:00 +5°C° 0 mm 2 mps 761 mmHg 74%
    15:00 +4°C° 0 mm 2 mps 761 mmHg 76%
    16:00 +4°C° 0 mm 2 mps 762 mmHg 77%
    17:00 +3°C° 0 mm 2 mps 762 mmHg 79%
    18:00 +3°C° 0 mm 2 mps 762 mmHg 81%
    19:00 +3°C° 0 mm 2 mps 763 mmHg 82%
    20:00 +2°C° 0 mm 2 mps 763 mmHg 83%
    21:00 +2°C° 0 mm 2 mps 763 mmHg 85%
    22:00 +2°C° 0 mm 2 mps 763 mmHg 86%
    23:00 +2°C° 0 mm 2 mps 763 mmHg 87%

    Tomorrow, 22 November, Thursday

    Time Temperature Precipitation Wind Pressure Humidity
    00:00 +1°C° 0 mm 2 mps 763 mmHg 88%
    01:00 +1°C° 0 mm 2 mps 763 mmHg 89%
    02:00 +1°C° 0 mm 2 mps 763 mmHg 89%
    03:00 +1°C° 0 mm 2 mps 763 mmHg 90%
    04:00 +1°C° 0 mm 2 mps 763 mmHg 90%
    05:00 -1°C° 0 mm 2 mps 763 mmHg 91%
    06:00 -1°C° 0 mm 2 mps 763 mmHg 91%
    07:00 +1°C° 0 mm 2 mps 763 mmHg 88%
    08:00 +2°C° 0 mm 2 mps 763 mmHg 85%
    09:00 +2°C° 0 mm 2 mps 763 mmHg 82%
    10:00 +4°C° 0 mm 2 mps 763 mmHg 77%
    11:00 +5°C° 0 mm 2 mps 763 mmHg 72%
    12:00 +6°C° 0 mm 2 mps 763 mmHg 68%
    13:00 +6°C° 0 mm 2 mps 763 mmHg 70%
    14:00 +6°C° 0 mm 2 mps 763 mmHg 73%
    15:00 +6°C° 0 mm 1 mps 762 mmHg 76%
    16:00 +5°C° 0 mm 2 mps 762 mmHg 79%
    17:00 +4°C° 0 mm 2 mps 763 mmHg 82%
    18:00 +3°C° 0 mm 2 mps 763 mmHg 86%
    19:00 +3°C° 0 mm 2 mps 763 mmHg 87%
    20:00 +3°C° 0 mm 2 mps 763 mmHg 88%
    21:00 +3°C° 0 mm 2 mps 763 mmHg 89%
    22:00 +3°C° 0 mm 2 mps 763 mmHg 90%
    23:00 +3°C° 0 mm 2 mps 763 mmHg 91%

    Day after tomorrow, 23 November, Friday

    Time Temperature Precipitation Wind Pressure Humidity
    00:00 +3°C° 0 mm 2 mps 763 mmHg 91%
    01:00 +3°C° 0 mm 2 mps 763 mmHg 91%
    02:00 +3°C° 0 mm 2 mps 763 mmHg 92%
    03:00 +3°C° 0 mm 2 mps 762 mmHg 92%
    04:00 +2°C° 0 mm 3 mps 762 mmHg 92%
    05:00 +2°C° 0 mm 3 mps 762 mmHg 92%
    06:00 +2°C° 0 mm 3 mps 762 mmHg 92%
    07:00 +3°C° 0 mm 3 mps 762 mmHg 91%
    08:00 +4°C° 0 mm 3 mps 762 mmHg 90%
    09:00 +4°C° 0 mm 3 mps 762 mmHg 89%
    10:00 +5°C° 0 mm 3 mps 762 mmHg 85%
    11:00 +8°C° 0 mm 2 mps 761 mmHg 81%
    12:00 +9°C° 0 mm 2 mps 761 mmHg 78%
    13:00 +9°C° 0 mm 2 mps 761 mmHg 80%
    14:00 +8°C° 0 mm 2 mps 760 mmHg 83%
    15:00 +8°C° 0 mm 2 mps 760 mmHg 86%
    16:00 +7°C° 0 mm 2 mps 760 mmHg 87%
    17:00 +7°C° 0 mm 2 mps 760 mmHg 89%
    18:00 +6°C° 0 mm 2 mps 760 mmHg 91%
    19:00 +6°C° 0 mm 2 mps 760 mmHg 91%
    20:00 +6°C° 0 mm 2 mps 760 mmHg 91%
    21:00 +6°C° 0 mm 2 mps 760 mmHg 92%
    22:00 +6°C° 0.2 mm 2 mps 759 mmHg 92%
    23:00 +6°C° 0.2 mm 2 mps 759 mmHg 93%

    24 November, Saturday

    Time Temperature Precipitation Wind Pressure Humidity
    00:00 +6°C° 0.2 mm 2 mps 759 mmHg 93%
    01:00 +5°C° 0.6 mm 2 mps 759 mmHg 94%
    02:00 +5°C° 0.6 mm 2 mps 759 mmHg 95%
    03:00 +5°C° 0.6 mm 2 mps 759 mmHg 96%
    04:00 +5°C° 0.2 mm 2 mps 758 mmHg 96%
    05:00 +5°C° 0.2 mm 2 mps 758 mmHg 96%
    06:00 +5°C° 0.2 mm 2 mps 758 mmHg 96%
    07:00 +5°C° 0 mm 2 mps 758 mmHg 94%
    08:00 +5°C° 0 mm 3 mps 758 mmHg 93%
    09:00 +5°C° 0 mm 3 mps 759 mmHg 91%
    10:00 +6°C° 0 mm 4 mps 758 mmHg 88%
    11:00 +7°C° 0 mm 4 mps 758 mmHg 85%
    12:00 +8°C° 0 mm 5 mps 758 mmHg 82%
    13:00 +8°C° 0 mm 4 mps 758 mmHg 83%
    14:00 +7°C° 0 mm 4 mps 758 mmHg 85%
    15:00 +7°C° 0 mm 4 mps 757 mmHg 86%
    16:00 +8°C° 0.6 mm 3 mps 757 mmHg 89%
    17:00 +7°C° 0.6 mm 3 mps 757 mmHg 91%
    18:00 +7°C° 0.6 mm 2 mps 757 mmHg 94%
    19:00 +7°C° 1 mm 2 mps 757 mmHg 94%
    20:00 +7°C° 1 mm 2 mps 757 mmHg 94%
    21:00 +7°C° 1 mm 3 mps 757 mmHg 94%
    22:00 +7°C° 0 mm 2 mps 757 mmHg 94%
    23:00 +7°C° 0 mm 2 mps 757 mmHg 94%

    25 November, Sunday

    Time Temperature Precipitation Wind Pressure Humidity
    00:00 +7°C° 0 mm 2 mps 757 mmHg 94%
    01:00 +7°C° 0.1 mm 2 mps 757 mmHg 94%
    02:00 +7°C° 0.1 mm 2 mps 757 mmHg 94%
    03:00 +7°C° 0.1 mm 2 mps 756 mmHg 94%
    04:00 +7°C° 0.3 mm 2 mps 756 mmHg 94%
    05:00 +7°C° 0.3 mm 2 mps 756 mmHg 94%
    06:00 +6°C° 0.3 mm 2 mps 756 mmHg 94%
    07:00 +7°C° 0.6 mm 2 mps 756 mmHg 93%
    08:00 +7°C° 0.6 mm 2 mps 756 mmHg 91%
    09:00 +7°C° 0.6 mm 2 mps 756 mmHg 90%
    10:00 +7°C° 0.3 mm 3 mps 755 mmHg 87%
    11:00 +8°C° 0.3 mm 3 mps 755 mmHg 84%
    12:00 +8°C° 0.3 mm 3 mps 754 mmHg 81%
    13:00 +8°C° 0.1 mm 3 mps 754 mmHg 82%
    14:00 +8°C° 0.1 mm 3 mps 754 mmHg 83%
    15:00 +7°C° 0.1 mm 4 mps 753 mmHg 83%
    16:00 +6°C° 0 mm 4 mps 753 mmHg 84%
    17:00 +6°C° 0 mm 4 mps 752 mmHg 85%
    18:00 +6°C° 0 mm 4 mps 752 mmHg 85%
    19:00 +6°C° 0.2 mm 4 mps 752 mmHg 86%
    20:00 +6°C° 0.2 mm 4 mps 752 mmHg 87%
    21:00 +6°C° 0.2 mm 4 mps 751 mmHg 88%
    22:00 +6°C° 0.5 mm 4 mps 751 mmHg 88%
    23:00 +6°C° 0.5 mm 4 mps 751 mmHg 89%

    26 November, Monday

    Time Temperature Precipitation Wind Pressure Humidity
    00:00 +6°C° 0.5 mm 4 mps 750 mmHg 90%
    01:00 +6°C° 0.3 mm 4 mps 750 mmHg 90%
    02:00 +6°C° 0.3 mm 4 mps 750 mmHg 91%
    03:00 +6°C° 0.3 mm 4 mps 749 mmHg 92%
    04:00 +6°C° 0.1 mm 4 mps 749 mmHg 92%
    05:00 +6°C° 0.1 mm 4 mps 749 mmHg 92%
    06:00 +6°C° 0.1 mm 4 mps 749 mmHg 92%
    07:00 +6°C° 0 mm 4 mps 750 mmHg 91%
    08:00 +6°C° 0 mm 4 mps 750 mmHg 90%
    09:00 +6°C° 0 mm 4 mps 750 mmHg 89%
    10:00 +7°C° 0 mm 4 mps 750 mmHg 86%
    11:00 +7°C° 0 mm 4 mps 750 mmHg 84%
    12:00 +8°C° 0 mm 4 mps 750 mmHg 82%
    13:00 +8°C° 0.3 mm 3 mps 750 mmHg 84%
    14:00 +8°C° 0.3 mm 3 mps 750 mmHg 86%
    15:00 +8°C° 0.3 mm 2 mps 750 mmHg 88%
    16:00 +8°C° 0.6 mm 2 mps 750 mmHg 90%
    17:00 +7°C° 0.6 mm 2 mps 750 mmHg 91%
    18:00 +7°C° 0.6 mm 2 mps 750 mmHg 93%
    19:00 +7°C° 0.3 mm 2 mps 751 mmHg 93%
    20:00 +7°C° 0.3 mm 2 mps 751 mmHg 94%
    21:00 +7°C° 0.3 mm 2 mps 751 mmHg 94%
    22:00 +6°C° 0.2 mm 2 mps 751 mmHg 94%
    23:00 +6°C° 0.2 mm 2 mps 752 mmHg 95%
    Show more